Simultaneous Nadir Overpasses (SNOs) Predictions

Prediction of SNOs between AQUA and NOAA-19 Satellite Orbit:

Table of predicted SNOs for the next 14.0 days since TLE Epoch: 7/3/2020
Index Date (AQUA) Time (AQUA) Lat,Lon (AQUA) SZA (AQUA ) Date (NOAA-19) Time (NOAA-19) Lat,Lon (NOAA-19) SZA (NOAA-19 ) Distance(km) Time Diff (sec)
1 07/05/2020 18:44:37 -79.72, 50.48 121.56 07/05/2020 18:44:33 -79.69, 50.57 121.59 3.04 4
2 07/08/2020 00:18:20 79.68, 147.33 58.63 07/08/2020 00:17:44 79.70, 147.45 58.65 3.43 36
3 07/08/2020 01:07:47 -79.70, -45.19 121.34 07/08/2020 01:08:50 -79.70, -45.32 121.35 2.64 63
4 07/10/2020 05:52:04 -79.69,-116.17 121.08 07/10/2020 05:51:08 -79.67,-116.20 121.07 2.54 56
5 07/10/2020 06:41:31 79.70, 51.37 58.95 07/10/2020 06:42:01 79.70, 51.48 58.93 2.25 30
6 07/12/2020 12:15:14 -79.68, 148.14 120.79 07/12/2020 12:15:24 -79.70, 148.14 120.77 2.33 10
7 07/14/2020 17:48:58 79.68,-115.32 59.56 07/14/2020 17:48:36 79.66,-115.44 59.57 3.05 22
8 07/14/2020 18:38:26 -79.74, 51.89 120.35 07/14/2020 18:39:37 -79.80, 53.35 120.45 29.72 71
9 07/16/2020 23:22:41 -79.66, -18.58 120.11 07/16/2020 23:21:58 -79.68, -18.52 120.08 2.79 43
